Randolph AFB, TX

7:04 PM CST on December 10, 2017 (GMT -0600)
Randolph Air Force Base

Weather History for KRND - October, 2013

Change the Weather History Date:

Friday, October 4, 2013

  Actual Average Record
Temperature  
Mean Temperature 79 °F -  
Max Temperature 90 °F 81 °F 91 °F (1997)
Min Temperature 69 °F 62 °F 52 °F (2011)
Cooling Degree Days 14    
Growing Degree Days 29 (Base 50)    
Moisture  
Dew Point 69 °F    
Average Humidity 82    
Maximum Humidity 100    
Minimum Humidity 48    
Precipitation  
Precipitation 0.00 in - - ()
Sea Level Pressure  
Sea Level Pressure 29.90 in    
Wind  
Wind Speed 6 mph (SSE)    
Max Wind Speed 15 mph    
Max Gust Speed 23 mph    
Visibility 8 miles    
Events Fog    
Averages and records for this station are not official NWS values.
T = Trace of Precipitation, MM = Missing Value Source: NWS Daily Summary

Daily Weather History Graph

Daily Weather History Graph

Search for Another Location

Airport or City:

Trip Planner

Search our weather history database for the weather conditions in past years. The results will help you decide how hot, cold, wet, or windy it might be!

Date:

Astronomy

Oct. 04, 2013 Rise Set
Actual Time 7:28 AM CDT 7:14 PM CDT
Civil Twilight 7:04 AM CDT 7:38 PM CDT
Nautical Twilight 6:36 AM CDT 8:06 PM CDT
Astronomical Twilight 6:09 AM CDT 8:33 PM CDT
Moon 7:04 AM CDT (10/4) 7:01 PM CDT (10/4)
Length of Visible Light 12h 34m
Length of Day
11h 46m
Waning Crescent, 0% of the Moon is Illuminated
Oct 4
Waning Crescent
Oct 4
New
Oct 11
First Quarter
Oct 18
Full
Oct 26
Last Quarter

Hourly Weather History & Observations

Time (CDT) Temp. Heat Index Dew Point Humidity Pressure Visibility Wind Dir Wind Speed Gust Speed Precip Events Conditions
12:58 AM 73.0 °F - 69.1 °F 87% 29.89 in 10.0 mi SSE 5.8 mph - N/A   Partly Cloudy
1:58 AM 72.5 °F - 69.8 °F 91% 29.89 in 10.0 mi SSE 4.6 mph - N/A   Scattered Clouds
2:03 AM 73.4 °F - 69.8 °F 88% 29.91 in 10.0 mi SSE 4.6 mph - N/A   Mostly Cloudy
2:53 AM 73.4 °F - 69.8 °F 88% 29.91 in 10.0 mi SSE 5.8 mph - N/A   Scattered Clouds
2:58 AM 72.7 °F - 70.0 °F 91% 29.89 in 10.0 mi SSE 4.6 mph - N/A   Scattered Clouds
3:58 AM 71.6 °F - 69.6 °F 93% 29.89 in 10.0 mi SSE 4.6 mph - N/A   Partly Cloudy
4:48 AM 71.6 °F - 69.8 °F 94% 29.90 in 10.0 mi SSE 3.5 mph - N/A   Mostly Cloudy
4:58 AM 71.8 °F - 69.6 °F 93% 29.88 in 10.0 mi South 3.5 mph - N/A   Mostly Cloudy
5:08 AM 71.6 °F - 69.8 °F 94% 29.90 in 10.0 mi SSE 3.5 mph - N/A   Scattered Clouds
5:48 AM 71.6 °F - 69.8 °F 94% 29.91 in 9.0 mi SSE 3.5 mph - N/A   Partly Cloudy
5:58 AM 70.9 °F - 69.1 °F 94% 29.89 in 7.0 mi SSE 3.5 mph - N/A   Partly Cloudy
6:03 AM 71.6 °F - 69.8 °F 94% 29.91 in 6.0 mi SSE 3.5 mph - N/A   Partly Cloudy
6:23 AM 69.8 °F - 68.0 °F 94% 29.91 in 5.0 mi SSE 3.5 mph - N/A   Partly Cloudy
6:28 AM 69.8 °F - 68.0 °F 94% 29.91 in 4.0 mi SSE 3.5 mph - N/A   Partly Cloudy
6:33 AM 69.8 °F - 68.0 °F 94% 29.91 in 3.0 mi SSE 3.5 mph - N/A   Clear
6:38 AM 69.8 °F - 69.8 °F 100% 29.91 in 2.5 mi SSE 3.5 mph - N/A   Clear
6:43 AM 69.8 °F - 68.0 °F 94% 29.92 in 1.2 mi SSE 3.5 mph - N/A   Clear
6:48 AM 69.8 °F - 68.0 °F 94% 29.92 in 0.8 mi SSE 3.5 mph - N/A   Clear
6:58 AM 70.2 °F - 68.7 °F 95% 29.90 in 4.0 mi SSE 2.3 mph - N/A   Scattered Clouds
7:13 AM 69.8 °F - 68.0 °F 94% 29.92 in 0.5 mi SSE 3.5 mph - N/A Fog Fog
7:18 AM 69.8 °F - 68.0 °F 94% 29.92 in 4.0 mi South 3.5 mph - N/A   Scattered Clouds
7:28 AM 69.8 °F - 68.0 °F 94% 29.92 in 0.5 mi SSE 2.3 mph - N/A Fog Fog
7:36 AM 69.8 °F - 68.0 °F 94% 29.92 in 3.0 mi SSE 3.5 mph - N/A   Scattered Clouds
7:58 AM 69.8 °F - 68.0 °F 94% 29.90 in 3.0 mi SSE 2.3 mph - N/A   Scattered Clouds
8:11 AM 69.8 °F - 69.8 °F 100% 29.93 in 5.0 mi SE 3.5 mph - N/A   Scattered Clouds
8:21 AM 71.6 °F - 69.8 °F 94% 29.93 in 3.0 mi SE 3.5 mph - N/A   Clear
8:26 AM 71.6 °F - 69.8 °F 94% 29.93 in 6.0 mi SE 3.5 mph - N/A   Clear
8:30 AM 71.6 °F - 69.8 °F 94% 29.93 in 7.0 mi SE 2.3 mph - N/A   Scattered Clouds
8:58 AM 72.9 °F - 71.4 °F 95% 29.91 in 10.0 mi South 5.8 mph - N/A   Scattered Clouds
9:58 AM 77.4 °F - 72.7 °F 85% 29.92 in 10.0 mi South 10.4 mph - N/A   Mostly Cloudy
10:33 AM 78.8 °F - 69.8 °F 74% 29.94 in 10.0 mi South 13.8 mph 20.7 mph N/A   Partly Cloudy
10:58 AM 82.0 °F 85.9 °F 70.2 °F 67% 29.92 in 10.0 mi South 11.5 mph - N/A   Scattered Clouds
11:58 AM 84.6 °F 88.2 °F 68.9 °F 59% 29.90 in 10.0 mi SSW 12.7 mph - N/A   Partly Cloudy
11:59 AM 86.0 °F 90.4 °F 69.8 °F 58% 29.92 in 10.0 mi SW 12.7 mph - N/A   Scattered Clouds
12:58 PM 86.0 °F 89.4 °F 68.0 °F 55% 29.89 in 10.0 mi South 12.7 mph 23.0 mph N/A   Clear
1:49 PM 87.8 °F 91.4 °F 68.0 °F 52% 29.89 in 10.0 mi South 15.0 mph 20.7 mph N/A   Partly Cloudy
1:58 PM 88.0 °F 91.8 °F 68.2 °F 52% 29.86 in 10.0 mi SSW 11.5 mph - N/A   Partly Cloudy
2:58 PM 89.8 °F 93.8 °F 68.0 °F 49% 29.84 in 10.0 mi SSE 13.8 mph 17.3 mph N/A   Partly Cloudy
3:58 PM 89.8 °F 93.8 °F 68.0 °F 49% 29.83 in 10.0 mi South 10.4 mph - N/A   Clear
4:58 PM 89.2 °F 92.4 °F 67.1 °F 48% 29.83 in 10.0 mi SSE 12.7 mph - N/A   Partly Cloudy
5:58 PM 88.7 °F 91.9 °F 67.1 °F 49% 29.82 in 10.0 mi SSE 12.7 mph - N/A   Partly Cloudy
6:58 PM 84.7 °F 87.6 °F 67.6 °F 56% 29.83 in 10.0 mi SSE 8.1 mph - N/A   Clear
7:58 PM 79.7 °F - 67.8 °F 67% 29.85 in 10.0 mi SE 9.2 mph - N/A   Clear
8:58 PM 80.8 °F 84.2 °F 70.3 °F 70% 29.87 in 10.0 mi SSE 10.4 mph - N/A   Partly Cloudy
9:58 PM 78.3 °F - 69.8 °F 75% 29.89 in 10.0 mi SSE 10.4 mph - N/A   Clear
10:58 PM 76.8 °F - 70.0 °F 79% 29.90 in 10.0 mi SSE 15.0 mph - N/A   Clear
11:58 PM 75.0 °F - 70.3 °F 85% 29.90 in 10.0 mi SSE 10.4 mph - N/A   Clear